TimeEDT,TemperatureF,Dew PointF,Humidity,Sea Level PressureIn,VisibilityMPH,Wind Direction,Wind SpeedMPH,Gust SpeedMPH,PrecipitationIn,Events,Conditions,WindDirDegrees,DateUTC
12:15 AM,64.4,59.0,83,30.05,10.0,Calm,Calm,-,N/A,,Clear,0,2014-05-13 04:15:00
12:35 AM,64.4,59.0,83,30.05,10.0,Calm,Calm,-,N/A,,Clear,0,2014-05-13 04:35:00
12:55 AM,64.4,59.0,83,30.05,10.0,Calm,Calm,-,N/A,,Clear,0,2014-05-13 04:55:00
1:15 AM,62.6,59.0,88,30.05,10.0,Calm,Calm,-,N/A,,Clear,0,2014-05-13 05:15:00
1:35 AM,62.6,59.0,88,30.05,10.0,Calm,Calm,-,N/A,,Clear,0,2014-05-13 05:35:00
1:55 AM,62.6,59.0,88,30.04,10.0,Calm,Calm,-,N/A,,Clear,0,2014-05-13 05:55:00
2:15 AM,60.8,59.0,94,30.04,10.0,Calm,Calm,-,N/A,,Clear,0,2014-05-13 06:15:00
2:35 AM,60.8,57.2,88,30.03,4.0,Calm,Calm,-,N/A,,Clear,0,2014-05-13 06:35:00
2:55 AM,60.8,57.2,88,30.03,4.0,Calm,Calm,-,N/A,,Clear,0,2014-05-13 06:55:00
3:15 AM,60.8,57.2,88,30.02,5.0,Calm,Calm,-,N/A,,Clear,0,2014-05-13 07:15:00
3:35 AM,60.8,57.2,88,30.03,7.0,Calm,Calm,-,N/A,,Clear,0,2014-05-13 07:35:00
3:55 AM,59.0,57.2,94,30.04,5.0,Calm,Calm,-,N/A,,Clear,0,2014-05-13 07:55:00
4:15 AM,59.0,57.2,94,30.05,0.8,Calm,Calm,-,N/A,,Mist,0,2014-05-13 08:15:00
4:35 AM,60.8,57.2,88,30.05,0.8,Calm,Calm,-,N/A,,Mist,0,2014-05-13 08:35:00
4:55 AM,60.8,57.2,88,30.05,5.0,Calm,Calm,-,N/A,,Clear,0,2014-05-13 08:55:00
5:15 AM,60.8,57.2,88,30.06,5.0,Calm,Calm,-,N/A,,Clear,0,2014-05-13 09:15:00
5:35 AM,60.8,57.2,88,30.07,7.0,Calm,Calm,-,N/A,,Clear,0,2014-05-13 09:35:00
5:55 AM,60.8,57.2,88,30.07,5.0,Calm,Calm,-,N/A,,Clear,0,2014-05-13 09:55:00
6:15 AM,60.8,59.0,94,30.08,7.0,Calm,Calm,-,N/A,,Clear,0,2014-05-13 10:15:00
6:35 AM,62.6,59.0,88,30.11,5.0,NNE,3.5,-,N/A,,Mostly Cloudy,30,2014-05-13 10:35:00
6:45 AM,60.8,60.8,100,30.11,6.0,Calm,Calm,-,N/A,,Mostly Cloudy,0,2014-05-13 10:45:00
7:45 AM,64.4,51.8,64,30.16,6.0,ENE,12.7,19.6,N/A,,Overcast,70,2014-05-13 11:45:00
9:45 AM,64.4,44.6,49,30.22,10.0,East,11.5,19.6,N/A,,Mostly Cloudy,90,2014-05-13 13:45:00
10:45 AM,66.2,44.6,46,30.21,15.0,East,8.1,20.7,N/A,,Overcast,90,2014-05-13 14:45:00
11:45 AM,66.2,44.6,46,30.21,15.0,ESE,8.1,-,N/A,,Overcast,120,2014-05-13 15:45:00
12:45 PM,68.0,44.6,43,30.22,10.0,ESE,6.9,-,N/A,,Mostly Cloudy,120,2014-05-13 16:45:00
1:45 PM,71.6,46.4,41,30.20,15.0,East,6.9,-,N/A,,Overcast,90,2014-05-13 17:45:00
2:45 PM,69.8,44.6,40,30.21,15.0,SSE,13.8,17.3,N/A,,Mostly Cloudy,150,2014-05-13 18:45:00
3:45 PM,68.0,41.0,37,30.21,15.0,South,11.5,23.0,N/A,,Mostly Cloudy,180,2014-05-13 19:45:00
4:45 PM,66.2,39.2,37,30.22,10.0,South,10.4,19.6,N/A,,Mostly Cloudy,180,2014-05-13 20:45:00
5:45 PM,64.4,39.2,40,30.21,10.0,SSE,10.4,17.3,N/A,,Scattered Clouds,160,2014-05-13 21:45:00
6:45 PM,60.8,41.0,48,30.23,10.0,South,11.5,-,N/A,,Scattered Clouds,170,2014-05-13 22:45:00
7:45 PM,57.2,42.8,59,30.25,10.0,South,8.1,-,N/A,,Scattered Clouds,170,2014-05-13 23:45:00
8:46 PM,55.4,42.8,63,30.26,10.0,SSE,6.9,-,N/A,,Scattered Clouds,160,2014-05-14 00:46:00
9:45 PM,53.6,42.8,67,30.29,10.0,SSE,5.8,-,N/A,,Scattered Clouds,160,2014-05-14 01:45:00
10:15 PM,55.4,44.6,67,30.29,10.0,SE,3.5,-,N/A,,Clear,140,2014-05-14 02:15:00
10:35 PM,55.4,44.6,67,30.29,10.0,South,3.5,-,N/A,,Clear,170,2014-05-14 02:35:00
10:55 PM,53.6,44.6,72,30.29,10.0,SSE,3.5,-,N/A,,Clear,160,2014-05-14 02:55:00
11:15 PM,53.6,44.6,72,30.30,10.0,SSE,3.5,-,N/A,,Clear,150,2014-05-14 03:15:00
11:35 PM,53.6,44.6,72,30.30,10.0,Calm,Calm,-,N/A,,Clear,0,2014-05-14 03:35:00
11:55 PM,53.6,44.6,72,30.29,10.0,Calm,Calm,-,N/A,,Clear,0,2014-05-14 03:55:00